Location: Hengforden
(52.3167°N, 6.1333°E)
Time: 16:21:56
(UTC+00:00)

Spot 1 - Pass Details

Date: 14 June 2025
Orbit: 568 x 752 km, 98.7° (Epoch: 19 July)

Event Time Altitude Azimuth Distance (km) Brightness Sun altitude
Rises 23:18:14 0° 16° (NNE) 3,132 9.1 -14.3°
Reaches altitude 10° 23:20:29 10° 17° (NNE) 2,229 8.1 -14.3°
Maximum altitude 23:25:26 81° 105° (ESE) 758 4.4 -14.3°
Enters shadow 23:28:48 21° 192° (SSW) 1,626 5.6 -14.4°
